Regional Weather Roundup
Issued by NWS Raleigh/Durham, NC

Home | Current Version | Previous Version | Text Only | Print | Product List | Glossary On
Versions: 1 2 3 4 5 6 7 8 9 10 11 12 13 14 15 16 17 18 19 20 21 22 23 24 25 26 27 28 29 30 31 32 33 34 35 36 37 38 39 40 41 42 43 44 45 46 47 48 49 50
000
ASUS42 KRAH 010610
RWRRAH
NORTH CAROLINA WEATHER ROUNDUP
NATIONAL WEATHER SERVICE RALEIGH NC
200 AM EDT WED OCT 01 2014

NOTE: "FAIR" INDICATES FEW OR NO CLOUDS BELOW 12,000 FEET WITH NO
SIGNIFICANT WEATHER AND/OR OBSTRUCTIONS TO VISIBILITY.

NCZ001-053-055-056-065-067-010700-
WESTERN NORTH CAROLINA

CITY           SKY/WX    TMP DP  RH WIND       PRES   REMARKS
ASHEVILLE      CLEAR     56  54  93 CALM      30.02S
JEFFERSON      CLEAR     52  50  94 CALM      30.04S
MORGANTON      CLEAR     55  55 100 CALM      30.01R FOG
HICKORY        CLEAR     62  58  86 W3        29.95S
RUTHERFORDTON  CLEAR     59  59  99 CALM      29.96S
MOUNT AIRY     CLEAR     60  58  92 CALM      29.97S FOG
BOONE            N/A     50  50 100 CALM      30.05S FOG
$$

NCZ021-022-025-041-071-084-088-010700-
CENTRAL NORTH CAROLINA

CITY           SKY/WX    TMP DP  RH WIND       PRES   REMARKS
CHARLOTTE      CLEAR     64  61  90 CALM      29.94S
GREENSBORO     CLEAR     62  61  96 CALM      29.93F FOG
WINSTON-SALEM  CLEAR     62  59  90 CALM      29.95S
RALEIGH-DURHAM PTCLDY    59  57  93 CALM      29.94S
FORT BRAGG     CLEAR     61  60  98 CALM      29.91S
FAYETTEVILLE   CLEAR     63  62  97 N3        29.91S FOG
BURLINGTON     FOG       58  56  93 CALM      29.93S VSB 1/4
LAURINBURG     CLEAR     59  57  93 CALM      29.92F FOG
$$

NCZ011-015-027-028-043-044-047-080-103-010700-
NORTHEASTERN NORTH CAROLINA

CITY           SKY/WX    TMP DP  RH WIND       PRES   REMARKS
ROCKY MT-WILSO FOG       57  56  96 CALM      29.93R VSB 1/2
GREENVILLE     FOG       61  61 100 CALM      29.94R VSB 1/4
WASHINGTON     CLEAR     60  59  97 N3        29.92R
ELIZABETH CITY CLEAR     64  63  96 N7        29.92R
MANTEO         PTCLDY    68  64  89 N8        29.90S
CAPE HATTERAS  CLEAR     67  66  97 N7        29.88S
$$

NCZ078-087-090-091-093-098-101-010700-
SOUTHEASTERN NORTH CAROLINA

CITY           SKY/WX    TMP DP  RH WIND       PRES   REMARKS
LUMBERTON      CLEAR     59  58  96 CALM      29.91S
GOLDSBORO      CLEAR     62  62  98 CALM      29.90S
KINSTON        CLEAR     61  61  99 CALM      29.92S FOG
KENANSVILLE    CLEAR     61  59  94 CALM      29.93R
NEW BERN       CLEAR     64  61  88 CALM      29.92R FOG
CHERRY POINT   CLEAR     66  63  90 N5        29.91S
BEAUFORT       CLEAR     65  63  93 N7        29.90R
JACKSONVILLE   CLEAR     65  63  93 CALM      29.90S
WILMINGTON     CLEAR     65  63  93 NE3       29.90S
$$




USA.gov is the U.S. government's official web portal to all federal, state and local government web resources and services.